• In Latvia
  • List of Countries
  • For 7 days
  • Water Temperature
  • Satellite Maps
  • Weather Map
  • Weather Widgets
  • user-avatar
    Login

    Hourly Weather Yulara

    Today, 30 March, Thursday

    Time Temperature Precipitation Wind Pressure Humidity
    00:00 +26°C° 0 mm 11 mps 719 mmHg 37%
    01:00 +23°C° 0 mm 10 mps 720 mmHg 42%
    02:00 +22°C° 0 mm 10 mps 720 mmHg 47%
    03:00 +21°C° 0 mm 9 mps 720 mmHg 52%
    04:00 +19°C° 0 mm 9 mps 720 mmHg 53%
    05:00 +18°C° 0 mm 9 mps 721 mmHg 54%
    06:00 +17°C° 0 mm 9 mps 721 mmHg 55%
    07:00 +18°C° 0 mm 9 mps 722 mmHg 51%
    08:00 +18°C° 0 mm 9 mps 722 mmHg 47%
    09:00 +20°C° 0 mm 8 mps 722 mmHg 43%
    10:00 +22°C° 0 mm 8 mps 722 mmHg 37%
    11:00 +23°C° 0 mm 8 mps 722 mmHg 31%
    12:00 +26°C° 0 mm 8 mps 722 mmHg 25%
    13:00 +27°C° 0 mm 8 mps 721 mmHg 23%
    14:00 +28°C° 0 mm 8 mps 721 mmHg 21%
    15:00 +29°C° 0 mm 7 mps 720 mmHg 18%
    16:00 +28°C° 0 mm 7 mps 720 mmHg 18%
    17:00 +27°C° 0 mm 7 mps 720 mmHg 18%
    18:00 +26°C° 0 mm 6 mps 720 mmHg 18%
    19:00 +24°C° 0 mm 6 mps 721 mmHg 20%
    20:00 +23°C° 0 mm 5 mps 721 mmHg 21%
    21:00 +22°C° 0 mm 5 mps 722 mmHg 22%
    22:00 +21°C° 0 mm 5 mps 722 mmHg 24%
    23:00 +21°C° 0 mm 6 mps 722 mmHg 25%

    Tomorrow, 31 March, Friday

    Time Temperature Precipitation Wind Pressure Humidity
    00:00 +20°C° 0 mm 6 mps 722 mmHg 27%
    01:00 +20°C° 0 mm 6 mps 722 mmHg 27%
    02:00 +19°C° 0 mm 6 mps 721 mmHg 28%
    03:00 +19°C° 0 mm 6 mps 721 mmHg 28%
    04:00 +17°C° 0 mm 5 mps 721 mmHg 29%
    05:00 +17°C° 0 mm 5 mps 721 mmHg 29%
    06:00 +18°C° 0 mm 4 mps 721 mmHg 30%
    07:00 +19°C° 0 mm 5 mps 721 mmHg 28%
    08:00 +20°C° 0 mm 5 mps 722 mmHg 26%
    09:00 +21°C° 0 mm 6 mps 722 mmHg 25%
    10:00 +22°C° 0 mm 6 mps 722 mmHg 22%
    11:00 +25°C° 0 mm 5 mps 722 mmHg 19%
    12:00 +27°C° 0 mm 5 mps 721 mmHg 16%
    13:00 +28°C° 0 mm 5 mps 721 mmHg 15%
    14:00 +29°C° 0 mm 5 mps 720 mmHg 13%
    15:00 +29°C° 0 mm 5 mps 719 mmHg 12%
    16:00 +29°C° 0 mm 5 mps 719 mmHg 12%
    17:00 +28°C° 0 mm 5 mps 720 mmHg 13%
    18:00 +27°C° 0 mm 4 mps 720 mmHg 14%
    19:00 +26°C° 0 mm 4 mps 720 mmHg 15%
    20:00 +23°C° 0 mm 4 mps 721 mmHg 17%
    21:00 +22°C° 0 mm 5 mps 721 mmHg 19%
    22:00 +21°C° 0 mm 5 mps 721 mmHg 21%
    23:00 +20°C° 0 mm 5 mps 721 mmHg 23%

    Day after tomorrow, 1 April, Saturday

    Time Temperature Precipitation Wind Pressure Humidity
    00:00 +20°C° 0 mm 5 mps 721 mmHg 25%
    01:00 +19°C° 0 mm 5 mps 721 mmHg 27%
    02:00 +17°C° 0 mm 5 mps 721 mmHg 29%
    03:00 +17°C° 0 mm 5 mps 720 mmHg 32%
    04:00 +16°C° 0 mm 5 mps 721 mmHg 33%
    05:00 +16°C° 0 mm 5 mps 721 mmHg 35%
    06:00 +15°C° 0 mm 5 mps 721 mmHg 36%
    07:00 +17°C° 0 mm 6 mps 722 mmHg 33%
    08:00 +20°C° 0 mm 7 mps 722 mmHg 30%
    09:00 +22°C° 0 mm 8 mps 723 mmHg 27%
    10:00 +23°C° 0 mm 8 mps 722 mmHg 25%
    11:00 +26°C° 0 mm 7 mps 722 mmHg 22%
    12:00 +27°C° 0 mm 7 mps 722 mmHg 19%
    13:00 +28°C° 0 mm 7 mps 721 mmHg 18%
    14:00 +29°C° 0 mm 7 mps 721 mmHg 17%
    15:00 +29°C° 0 mm 8 mps 720 mmHg 15%
    16:00 +28°C° 0 mm 7 mps 720 mmHg 17%
    17:00 +27°C° 0 mm 7 mps 720 mmHg 19%
    18:00 +26°C° 0 mm 6 mps 720 mmHg 20%
    19:00 +24°C° 0 mm 6 mps 721 mmHg 23%
    20:00 +22°C° 0 mm 6 mps 722 mmHg 26%
    21:00 +21°C° 0 mm 6 mps 722 mmHg 28%
    22:00 +20°C° 0 mm 6 mps 722 mmHg 30%
    23:00 +20°C° 0 mm 5 mps 722 mmHg 32%

    2 April, Sunday

    Time Temperature Precipitation Wind Pressure Humidity
    00:00 +19°C° 0 mm 5 mps 722 mmHg 35%
    01:00 +19°C° 0 mm 5 mps 722 mmHg 36%
    02:00 +17°C° 0 mm 5 mps 722 mmHg 38%
    03:00 +16°C° 0 mm 5 mps 722 mmHg 40%
    04:00 +16°C° 0 mm 5 mps 722 mmHg 41%
    05:00 +16°C° 0 mm 5 mps 722 mmHg 42%
    06:00 +15°C° 0 mm 6 mps 722 mmHg 43%
    07:00 +17°C° 0 mm 7 mps 723 mmHg 39%
    08:00 +18°C° 0 mm 8 mps 723 mmHg 34%
    09:00 +21°C° 0 mm 9 mps 724 mmHg 30%
    10:00 +23°C° 0 mm 9 mps 723 mmHg 26%
    11:00 +24°C° 0 mm 9 mps 723 mmHg 23%
    12:00 +27°C° 0 mm 8 mps 723 mmHg 20%
    13:00 +28°C° 0 mm 8 mps 722 mmHg 18%
    14:00 +28°C° 0 mm 8 mps 721 mmHg 17%
    15:00 +29°C° 0 mm 8 mps 721 mmHg 16%
    16:00 +28°C° 0 mm 7 mps 721 mmHg 17%
    17:00 +27°C° 0 mm 7 mps 721 mmHg 18%
    18:00 +26°C° 0 mm 6 mps 721 mmHg 19%
    19:00 +24°C° 0 mm 6 mps 722 mmHg 21%
    20:00 +22°C° 0 mm 6 mps 722 mmHg 23%
    21:00 +21°C° 0 mm 6 mps 723 mmHg 25%
    22:00 +20°C° 0 mm 6 mps 723 mmHg 28%
    23:00 +20°C° 0 mm 6 mps 723 mmHg 30%

    3 April, Monday

    Time Temperature Precipitation Wind Pressure Humidity
    00:00 +19°C° 0 mm 5 mps 723 mmHg 32%
    01:00 +19°C° 0 mm 5 mps 723 mmHg 35%
    02:00 +17°C° 0 mm 5 mps 722 mmHg 37%
    03:00 +16°C° 0 mm 5 mps 722 mmHg 39%
    04:00 +16°C° 0 mm 5 mps 723 mmHg 40%
    05:00 +16°C° 0 mm 5 mps 723 mmHg 42%
    06:00 +15°C° 0 mm 5 mps 723 mmHg 43%
    07:00 +17°C° 0 mm 6 mps 723 mmHg 38%
    08:00 +20°C° 0 mm 7 mps 724 mmHg 33%
    09:00 +21°C° 0 mm 8 mps 724 mmHg 29%
    10:00 +23°C° 0 mm 8 mps 724 mmHg 25%
    11:00 +26°C° 0 mm 8 mps 723 mmHg 22%
    12:00 +28°C° 0 mm 8 mps 723 mmHg 18%
    13:00 +28°C° 0 mm 7 mps 722 mmHg 17%
    14:00 +29°C° 0 mm 7 mps 721 mmHg 16%
    15:00 +30°C° 0 mm 7 mps 721 mmHg 14%
    16:00 +28°C° 0 mm 6 mps 721 mmHg 15%
    17:00 +27°C° 0 mm 6 mps 721 mmHg 16%
    18:00 +26°C° 0 mm 5 mps 721 mmHg 17%
    19:00 +25°C° 0 mm 5 mps 722 mmHg 19%
    20:00 +22°C° 0 mm 5 mps 722 mmHg 20%
    21:00 +21°C° 0 mm 5 mps 722 mmHg 22%
    22:00 +20°C° 0 mm 5 mps 722 mmHg 23%
    23:00 +20°C° 0 mm 5 mps 722 mmHg 23%

    4 April, Tuesday

    Time Temperature Precipitation Wind Pressure Humidity
    00:00 +19°C° 0 mm 5 mps 722 mmHg 24%
    01:00 +17°C° 0 mm 5 mps 722 mmHg 24%
    02:00 +17°C° 0 mm 5 mps 721 mmHg 24%
    03:00 +16°C° 0 mm 5 mps 721 mmHg 24%
    04:00 +17°C° 0 mm 4 mps 722 mmHg 24%
    05:00 +15°C° 0 mm 4 mps 722 mmHg 24%
    06:00 +15°C° 0 mm 4 mps 722 mmHg 24%
    07:00 +17°C° 0 mm 5 mps 722 mmHg 22%
    08:00 +20°C° 0 mm 5 mps 723 mmHg 19%
    09:00 +22°C° 0 mm 6 mps 723 mmHg 17%
    10:00 +25°C° 0 mm 5 mps 723 mmHg 15%
    11:00 +26°C° 0 mm 5 mps 722 mmHg 14%
    12:00 +28°C° 0 mm 5 mps 722 mmHg 13%
    13:00 +29°C° 0 mm 4 mps 721 mmHg 12%
    14:00 +29°C° 0 mm 4 mps 721 mmHg 12%
    15:00 +30°C° 0 mm 4 mps 720 mmHg 11%
    16:00 +29°C° 0 mm 4 mps 720 mmHg 12%
    17:00 +27°C° 0 mm 3 mps 720 mmHg 14%
    18:00 +26°C° 0 mm 3 mps 720 mmHg 15%
    19:00 +25°C° 0 mm 3 mps 720 mmHg 17%
    20:00 +23°C° 0 mm 4 mps 720 mmHg 19%
    21:00 +22°C° 0 mm 4 mps 721 mmHg 21%
    22:00 +21°C° 0 mm 4 mps 720 mmHg 23%
    23:00 +21°C° 0 mm 4 mps 720 mmHg 25%
    Show more